| time (UTC) | temp C | wind direction | speed KPH | gust KPH | rain 1hr cm | rain 24hr cm | rain mn cm | humidity % | barometer mb |
| 20260509064547 | 11 | 172 | 6.4 | 11.3 | 0.00 | 0.13 | 0.00 | 45 | 1009.2 |
| 20260509063103 | 11 | 165 | 3.2 | 8.0 | 0.00 | 0.13 | 0.00 | 45 | 1009.6 |
| 20260509061609 | 10 | 184 | 1.6 | 3.2 | 0.00 | 0.13 | 0.00 | 44 | 1009.8 |
| 20260509060055 | 10 | 184 | 0.0 | 4.8 | 0.00 | 0.13 | 0.00 | 42 | 1010.1 |
| 20260509054541 | 11 | 177 | 3.2 | 8.0 | 0.00 | 0.13 | 0.00 | 44 | 1010.1 |
| 20260509053042 | 11 | 190 | 1.6 | 4.8 | 0.00 | 0.13 | 0.00 | 42 | 1010.3 |
| 20260509051537 | 10 | 191 | 0.0 | 3.2 | 0.00 | 0.13 | 0.00 | 40 | 1010.3 |
| 20260509050035 | 11 | 190 | 1.6 | 6.4 | 0.00 | 0.13 | 0.00 | 40 | 1010.3 |
| 20260509044535 | 10 | 180 | 3.2 | 4.8 | 0.00 | 0.13 | 0.00 | 37 | 1010.4 |
| 20260509043033 | 10 | 176 | 1.6 | 3.2 | 0.00 | 0.13 | 0.00 | 37 | 1010.4 |
| 20260509041531 | 11 | 176 | 1.6 | 3.2 | 0.00 | 0.13 | 0.00 | 39 | 1010.5 |
| 20260509040027 | 11 | 175 | 1.6 | 4.8 | 0.00 | 0.13 | 0.00 | 40 | 1010.7 |
| 20260509034526 | 12 | 175 | 0.0 | 6.4 | 0.00 | 0.13 | 0.13 | 40 | 1010.7 |
| 20260509033026 | 12 | 151 | 1.6 | 4.8 | 0.00 | 0.13 | 0.13 | 40 | 1010.8 |
| 20260509031527 | 12 | 150 | 0.0 | 3.2 | 0.00 | 0.13 | 0.13 | 40 | 1010.7 |
| 20260509030025 | 12 | 360 | 3.2 | 6.4 | 0.00 | 0.13 | 0.13 | 40 | 1011.0 |
| 20260509024524 | 12 | 187 | 0.0 | 4.8 | 0.00 | 0.13 | 0.13 | 40 | 1011.0 |
| 20260509023024 | 12 | 187 | 0.0 | 1.6 | 0.00 | 0.13 | 0.13 | 43 | 1010.9 |
| 20260509021524 | 12 | 187 | 1.6 | 4.8 | 0.00 | 0.13 | 0.13 | 43 | 1011.1 |
| 20260509020035 | 12 | 360 | 3.2 | 9.7 | 0.00 | 0.13 | 0.13 | 44 | 1010.8 |
| 20260509014538 | 13 | 360 | 4.8 | 9.7 | 0.00 | 0.41 | 0.13 | 46 | 1010.8 |
| 20260509013030 | 13 | 360 | 3.2 | 8.0 | 0.00 | 0.41 | 0.13 | 47 | 1010.7 |
| 20260509011521 | 13 | 360 | 8.0 | 12.9 | 0.00 | 0.41 | 0.13 | 47 | 1010.7 |
| 20260509010019 | 13 | 360 | 6.4 | 14.5 | 0.00 | 0.41 | 0.13 | 46 | 1010.5 |
| 20260509004520 | 14 | 211 | 6.4 | 14.5 | 0.00 | 0.51 | 0.13 | 44 | 1010.4 |
| 20260509003028 | 15 | 215 | 11.3 | 19.3 | 0.00 | 0.51 | 0.13 | 41 | 1010.3 |
| 20260509001517 | 15 | 210 | 9.7 | 16.1 | 0.00 | 0.51 | 0.13 | 41 | 1010.3 |
| 20260509000016 | 15 | 219 | 9.7 | 19.3 | 0.00 | 0.51 | 0.13 | 42 | 1010.3 |
| 20260508234516 | 16 | 215 | 14.5 | 24.1 | 0.00 | 0.51 | 0.13 | 42 | 1010.5 |
| 20260508233015 | 16 | 214 | 11.3 | 24.1 | 0.00 | 0.51 | 0.13 | 42 | 1010.4 |
| 20260508231514 | 16 | 223 | 17.7 | 24.1 | 0.00 | 0.51 | 0.13 | 40 | 1010.4 |
| 20260508230018 | 16 | 224 | 11.3 | 27.4 | 0.00 | 0.51 | 0.13 | 39 | 1010.4 |
| 20260508224512 | 17 | 238 | 12.9 | 22.5 | 0.00 | 0.51 | 0.13 | 37 | 1010.6 |
| 20260508223016 | 17 | 250 | 17.7 | 30.6 | 0.00 | 0.51 | 0.13 | 39 | 1010.7 |
| 20260508221509 | 17 | 233 | 20.9 | 29.0 | 0.00 | 0.51 | 0.13 | 37 | 1010.7 |
| 20260508220008 | 16 | 269 | 19.3 | 29.0 | 0.00 | 0.51 | 0.13 | 37 | 1010.7 |
| 20260508214514 | 16 | 227 | 19.3 | 32.2 | 0.00 | 0.51 | 0.13 | 40 | 1010.7 |
| 20260508213006 | 16 | 251 | 20.9 | 29.0 | 0.00 | 0.51 | 0.13 | 40 | 1010.8 |
| 20260508211506 | 16 | 213 | 24.1 | 35.4 | 0.00 | 0.51 | 0.13 | 40 | 1010.9 |
| 20260508210006 | 16 | 243 | 20.9 | 37.0 | 0.00 | 0.51 | 0.13 | 40 | 1010.9 |
| 20260508204505 | 16 | 254 | 20.9 | 37.0 | 0.00 | 0.51 | 0.13 | 39 | 1011.0 |
| 20260508203107 | 16 | 227 | 22.5 | 32.2 | 0.00 | 0.51 | 0.13 | 38 | 1011.2 |
| 20260508201606 | 17 | 249 | 24.1 | 33.8 | 0.00 | 0.51 | 0.13 | 39 | 1011.3 |
| 20260508194558 | 16 | 238 | 17.7 | 29.0 | 0.00 | 0.51 | 0.13 | 39 | 1011.3 |
| 20260508193057 | 16 | 219 | 17.7 | 27.4 | 0.00 | 0.51 | 0.13 | 40 | 1011.4 |
| 20260508191555 | 16 | 228 | 11.3 | 17.7 | 0.00 | 0.51 | 0.13 | 37 | 1011.7 |
| 20260508190054 | 16 | 230 | 8.0 | 14.5 | 0.00 | 0.51 | 0.13 | 35 | 1012.0 |
| 20260508184551 | 16 | 239 | 11.3 | 17.7 | 0.00 | 0.51 | 0.13 | 37 | 1012.3 |
| 20260508183049 | 16 | 229 | 11.3 | 19.3 | 0.00 | 0.51 | 0.13 | 37 | 1012.3 |
| 20260508181556 | 16 | 211 | 9.7 | 12.9 | 0.00 | 0.51 | 0.13 | 39 | 1012.4 |
| 20260508180047 | 16 | 198 | 3.2 | 11.3 | 0.00 | 0.51 | 0.13 | 37 | 1012.6 |
| 20260508174554 | 16 | 250 | 6.4 | 17.7 | 0.00 | 0.51 | 0.13 | 35 | 1013.2 |
| 20260508173045 | 16 | 189 | 8.0 | 16.1 | 0.00 | 0.51 | 0.13 | 38 | 1013.4 |
| 20260508171541 | 15 | 194 | 8.0 | 16.1 | 0.00 | 0.51 | 0.13 | 36 | 1013.6 |
| 20260508170040 | 15 | 192 | 9.7 | 14.5 | 0.00 | 0.51 | 0.13 | 37 | 1013.8 |
| 20260508164538 | 15 | 193 | 9.7 | 16.1 | 0.00 | 0.51 | 0.13 | 39 | 1013.9 |
| 20260508163035 | 14 | 211 | 9.7 | 14.5 | 0.00 | 0.51 | 0.13 | 38 | 1014.2 |
| 20260508161533 | 14 | 191 | 4.8 | 12.9 | 0.00 | 0.51 | 0.13 | 39 | 1014.3 |
| 20260508160034 | 14 | 196 | 8.0 | 16.1 | 0.00 | 0.51 | 0.13 | 39 | 1014.4 |
| 20260508154630 | 13 | 251 | 9.7 | 14.5 | 0.00 | 0.51 | 0.13 | 40 | 1014.6 |
| 20260508153027 | 13 | 207 | 9.7 | 16.1 | 0.00 | 0.51 | 0.13 | 40 | 1014.7 |
| 20260508151529 | 13 | 184 | 9.7 | 16.1 | 0.00 | 0.51 | 0.13 | 39 | 1014.5 |
| 20260508150031 | 12 | 223 | 8.0 | 16.1 | 0.00 | 0.51 | 0.13 | 40 | 1014.5 |
| 20260508144521 | 12 | 199 | 8.0 | 16.1 | 0.00 | 0.51 | 0.13 | 37 | 1014.6 |
| 20260508143019 | 11 | 202 | 11.3 | 17.7 | 0.00 | 0.51 | 0.13 | 36 | 1014.8 |
| 20260508141516 | 11 | 197 | 9.7 | 16.1 | 0.00 | 0.51 | 0.13 | 41 | 1014.7 |
| 20260508140010 | 10 | 203 | 6.4 | 12.9 | 0.00 | 0.51 | 0.13 | 44 | 1014.9 |
| 20260508134507 | 10 | 165 | 3.2 | 8.0 | 0.05 | 0.51 | 0.13 | 44 | 1015.0 |
| 20260508133005 | 10 | 180 | 1.6 | 4.8 | 0.08 | 0.51 | 0.13 | 44 | 1015.1 |
| 20260508131505 | 10 | 215 | 0.0 | 4.8 | 0.10 | 0.51 | 0.13 | 44 | 1015.5 |
| 20260508130000 | 9 | 212 | 3.2 | 8.0 | 0.10 | 0.51 | 0.13 | 43 | 1015.6 |
| 20260508124603 | 9 | 229 | 1.6 | 4.8 | 0.10 | 0.48 | 0.10 | 43 | 1015.5 |
| 20260508123058 | 9 | 227 | 1.6 | 4.8 | 0.05 | 0.43 | 0.05 | 43 | 1015.4 |
| 20260508121601 | 9 | 137 | 0.0 | 8.0 | 0.03 | 0.41 | 0.03 | 44 | 1015.1 |
| 20260508120052 | 8 | 188 | 1.6 | 3.2 | 0.03 | 0.41 | 0.03 | 45 | 1014.8 |
| 20260508114549 | 8 | 190 | 0.0 | 1.6 | 0.00 | 0.38 | 0.00 | 45 | 1015.0 |
| 20260508113103 | 7 | 190 | 0.0 | 0.0 | 0.00 | 0.38 | 0.00 | 44 | 1015.0 |
| 20260508111550 | 7 | 190 | 0.0 | 3.2 | 0.00 | 0.38 | 0.00 | 43 | 1014.9 |
| 20260508110047 | 7 | 190 | 0.0 | 0.0 | 0.00 | 0.38 | 0.00 | 42 | 1014.8 |
| 20260508104544 | 6 | 190 | 0.0 | 0.0 | 0.00 | 0.38 | 0.00 | 40 | 1014.8 |
| 20260508103042 | 6 | 190 | 0.0 | 0.0 | 0.00 | 0.38 | 0.00 | 39 | 1014.6 |
| 20260508101541 | 6 | 190 | 0.0 | 0.0 | 0.00 | 0.38 | 0.00 | 38 | 1014.6 |
| 20260508100039 | 6 | 190 | 0.0 | 0.0 | 0.00 | 0.38 | 0.00 | 37 | 1014.9 |
| 20260508094539 | 7 | 190 | 0.0 | 0.0 | 0.00 | 0.38 | 0.00 | 37 | 1014.8 |
| 20260508093045 | 7 | 190 | 0.0 | 0.0 | 0.00 | 0.38 | 0.00 | 37 | 1014.8 |
| 20260508091547 | 7 | 190 | 0.0 | 0.0 | 0.00 | 0.38 | 0.00 | 36 | 1014.9 |
| 20260508090040 | 7 | 190 | 0.0 | 0.0 | 0.00 | 0.38 | 0.00 | 36 | 1014.8 |
| 20260508084536 | 7 | 190 | 0.0 | 0.0 | 0.00 | 0.38 | 0.00 | 35 | 1014.9 |
| 20260508083040 | 7 | 190 | 0.0 | 0.0 | 0.00 | 0.38 | 0.00 | 35 | 1015.1 |
| 20260508081535 | 7 | 190 | 0.0 | 0.0 | 0.00 | 0.38 | 0.00 | 35 | 1014.9 |
| 20260508080036 | 7 | 190 | 0.0 | 0.0 | 0.00 | 0.38 | 0.00 | 35 | 1014.9 |
| 20260508074545 | 7 | 190 | 0.0 | 0.0 | 0.00 | 0.38 | 0.00 | 35 | 1014.8 |
| 20260508073032 | 7 | 190 | 0.0 | 0.0 | 0.00 | 0.38 | 0.00 | 35 | 1014.8 |
| 20260508071533 | 7 | 190 | 0.0 | 0.0 | 0.00 | 0.38 | 0.00 | 35 | 1014.9 |
| 20260508070032 | 7 | 360 | 0.0 | 3.2 | 0.00 | 0.38 | 0.00 | 35 | 1014.9 |